This demonstration page uses our WeatherBlox Daily Observations layout. Learn more.

38.88101, -77.10428

Hourly Observations for October 2, 2020

Temp ( °F °C ) Dew Point ( °F °C ) Humidity (%) Winds ( mph kmh ) Pressure ( in mb ) Visibility ( mi km ) Precip ( " mm )
12:52 am 00:52 Cloudy with Light Rain 58 14.4 55 12.8 90 90 SE 3 6 29.98 1015 10 16.0934 0.01 0.254
1:52 am 01:52 Cloudy with Light Rain 58 14.4 54 12.2 87 87 SSW 3 6 30 1016 10 16.0934 0.01 0.254
2:52 am 02:52 Cloudy 58 14.4 55 12.8 90 90 ESE 5 7 29.97 1015 10 16.0934 0.01 0.254
3:52 am 03:52 Cloudy with Light Rain 58 14.4 55 12.8 90 90 W 7 11 29.99 1016 10 16.0934 0.01 0.254
4:00 am 04:00 Cloudy with Light Rain 57 13.9 54 12.2 90 90 WNW 6 9 30 1016 9 14.48406 0.001 0.001
4:52 am 04:52 Cloudy with Light Rain 57 13.9 54 12.2 90 90 WSW 5 7 30.01 1016 10 16.0934 0.02 0.508
5:52 am 05:52 Cloudy with Light Rain 57 13.9 53 11.7 87 87 SSW 3 6 30 1016 10 16.0934 0.02 0.508
6:52 am 06:52 Cloudy with Light Rain 57 13.9 54 12.2 90 90 SSE 9 15 30.02 1017 10 16.0934 0.001 0.001
6:57 am 06:57 Cloudy with Light Rain 57 13.9 53 11.7 87 87 SE 8 13 30.03 1017 10 16.0934 0.001 0.001
7:37 am 07:37 Mostly Cloudy 57 13.9 53 11.7 87 87 SE 7 11 30.03 1017 10 16.0934 0.001 0.001
7:52 am 07:52 Mostly Cloudy 57 13.9 53 11.7 87 87 SE 5 7 30.02 1017 10 16.0934 0.001 0.001
8:52 am 08:52 Partly Cloudy 59 15 54 12.2 83 83 WSW 5 7 30.04 1017 10 16.0934 0 0
9:52 am 09:52 Partly Cloudy 61 16.1 52 11.1 72 72 W 7 11 30.05 1018 10 16.0934 0 0
10:52 am 10:52 Partly Cloudy 63 17.2 46 7.8 54 54 WNW 14 22 30.05 1018 10 16.0934 0 0
11:52 am 11:52 Partly Cloudy 66 18.9 47 8.3 50 50 W 12 19 30.05 1018 10 16.0934 0 0
12:52 pm 12:52 Partly Cloudy 67 19.4 45 7.2 45 45 NNW 10 17 30.04 1017 10 16.0934 0 0
1:52 pm 13:52 Partly Cloudy 67 19.4 43 6.1 42 42 W 15 24 30.04 1017 10 16.0934 0 0
2:52 pm 14:52 Partly Cloudy 67 19.4 43 6.1 42 42 NW 12 19 30.03 1017 10 16.0934 0 0
3:52 pm 15:52 Partly Cloudy 68 20 43 6.1 40 40 NW 12 19 30.04 1017 10 16.0934 0 0
4:52 pm 16:52 Partly Cloudy 67 19.4 44 6.7 44 44 NNW 14 22 30.05 1018 10 16.0934 0 0
5:52 pm 17:52 Partly Cloudy 65 18.3 44 6.7 47 47 NNW 10 17 30.05 1018 10 16.0934 0 0
6:52 pm 18:52 Mostly Clear 63 17.2 43 6.1 48 48 NW 9 15 30.07 1018 10 16.0934 0 0
7:52 pm 19:52 Clear 61 16.1 43 6.1 52 52 NNW 10 17 30.09 1019 10 16.0934 0 0
8:52 pm 20:52 Clear 58 14.4 45 7.2 62 62 NNW 7 11 30.11 1020 10 16.0934 0 0
9:52 pm 21:52 Clear 58 14.4 44 6.7 60 60 VRB 3 6 30.13 1020 10 16.0934 0 0
10:52 pm 22:52 Clear 57 13.9 43 6.1 60 60 NNW 6 9 30.15 1021 10 16.0934 0 0
11:52 pm 23:52 Clear 56 13.3 43 6.1 62 62 NW 9 15 30.17 1022 10 16.0934 0 0

Powered by AerisWeather